When you browse on this site, cookies collect data to enhance your experience and personalize the content and advertising you see.
Visit our Privacy Policy to learn more. By continuing to use the site, you agree to this use of cookies and data.
  • In Deutschland
  • Länderverzeichnis
  • Für 7 Tage
  • Wassertemperatur
  • Wetterkarte
  • Widgets
  • user-avatar
    Anmelden

    Stündliche Wetter Volchevka

    Heute, 16 Oktober, Mittwoch

    Zeit Temperatur Niederschläge Wind Luftdruck Luftfeuchtigkeit
    00:00 0°C° 0 mm 3 m/S 735 mmHg 89%
    01:00 0°C° 0 mm 3 m/S 735 mmHg 89%
    02:00 0°C° 0 mm 3 m/S 736 mmHg 88%
    03:00 0°C° 0 mm 3 m/S 736 mmHg 87%
    04:00 0°C° 0 mm 3 m/S 736 mmHg 86%
    05:00 0°C° 0.1 mm 3 m/S 737 mmHg 87%
    06:00 0°C° 0.1 mm 3 m/S 737 mmHg 88%
    07:00 -1°C° 0.1 mm 4 m/S 738 mmHg 90%
    08:00 0°C° 0.1 mm 4 m/S 738 mmHg 86%
    09:00 0°C° 0.1 mm 4 m/S 739 mmHg 82%
    10:00 +1°C° 0.1 mm 4 m/S 739 mmHg 78%
    11:00 +1°C° 0 mm 4 m/S 739 mmHg 76%
    12:00 +1°C° 0 mm 4 m/S 740 mmHg 74%
    13:00 +1°C° 0 mm 4 m/S 740 mmHg 72%
    14:00 +1°C° 0 mm 4 m/S 741 mmHg 73%
    15:00 +1°C° 0 mm 4 m/S 741 mmHg 73%
    16:00 0°C° 0 mm 5 m/S 742 mmHg 74%
    17:00 0°C° 0 mm 4 m/S 743 mmHg 76%
    18:00 -1°C° 0 mm 4 m/S 743 mmHg 78%
    19:00 -2°C° 0 mm 4 m/S 743 mmHg 80%
    20:00 -2°C° 0 mm 4 m/S 744 mmHg 81%
    21:00 -2°C° 0 mm 4 m/S 744 mmHg 82%
    22:00 -2°C° 0 mm 4 m/S 745 mmHg 83%
    23:00 -2°C° 0 mm 4 m/S 745 mmHg 82%

    Morgen, 17 Oktober, Donnerstag

    Zeit Temperatur Niederschläge Wind Luftdruck Luftfeuchtigkeit
    00:00 -2°C° 0 mm 4 m/S 745 mmHg 81%
    01:00 -2°C° 0 mm 4 m/S 745 mmHg 80%
    02:00 -2°C° 0 mm 4 m/S 746 mmHg 80%
    03:00 -1°C° 0 mm 3 m/S 746 mmHg 81%
    04:00 -1°C° 0 mm 3 m/S 747 mmHg 81%
    05:00 -3°C° 0 mm 4 m/S 747 mmHg 81%
    06:00 -3°C° 0 mm 4 m/S 747 mmHg 81%
    07:00 -3°C° 0 mm 4 m/S 747 mmHg 81%
    08:00 -2°C° 0 mm 4 m/S 747 mmHg 78%
    09:00 -2°C° 0 mm 4 m/S 747 mmHg 74%
    10:00 -1°C° 0 mm 4 m/S 747 mmHg 71%
    11:00 -1°C° 0 mm 4 m/S 747 mmHg 70%
    12:00 0°C° 0 mm 3 m/S 747 mmHg 69%
    13:00 0°C° 0 mm 3 m/S 747 mmHg 69%
    14:00 0°C° 0 mm 3 m/S 747 mmHg 70%
    15:00 0°C° 0 mm 3 m/S 747 mmHg 71%
    16:00 0°C° 0 mm 3 m/S 747 mmHg 73%
    17:00 -1°C° 0 mm 2 m/S 746 mmHg 78%
    18:00 -1°C° 0 mm 2 m/S 746 mmHg 83%
    19:00 +1°C° 0 mm 1 m/S 746 mmHg 89%
    20:00 +1°C° 0.4 mm 1 m/S 745 mmHg 91%
    21:00 +1°C° 0.4 mm 1 m/S 745 mmHg 94%
    22:00 +1°C° 0.4 mm 1 m/S 744 mmHg 96%
    23:00 +1°C° 0.5 mm 1 m/S 744 mmHg 96%

    übermorgen, 18 Oktober, Freitag

    Zeit Temperatur Niederschläge Wind Luftdruck Luftfeuchtigkeit
    00:00 +1°C° 0.5 mm 1 m/S 743 mmHg 97%
    01:00 +1°C° 0.5 mm 1 m/S 742 mmHg 97%
    02:00 +1°C° 0.3 mm 1 m/S 742 mmHg 97%
    03:00 0°C° 0.3 mm 1 m/S 742 mmHg 97%
    04:00 0°C° 0.3 mm 1 m/S 741 mmHg 97%
    05:00 0°C° 0.2 mm 1 m/S 741 mmHg 97%
    06:00 -2°C° 0.2 mm 2 m/S 741 mmHg 97%
    07:00 -2°C° 0.2 mm 2 m/S 740 mmHg 97%
    08:00 -2°C° 0.3 mm 2 m/S 740 mmHg 96%
    09:00 -1°C° 0.3 mm 3 m/S 741 mmHg 94%
    10:00 -1°C° 0.3 mm 3 m/S 741 mmHg 92%
    11:00 -1°C° 0.2 mm 4 m/S 741 mmHg 91%
    12:00 -1°C° 0.2 mm 4 m/S 741 mmHg 90%
    13:00 -1°C° 0.2 mm 4 m/S 742 mmHg 88%
    14:00 -1°C° 0.1 mm 4 m/S 742 mmHg 89%
    15:00 -2°C° 0.1 mm 4 m/S 743 mmHg 89%
    16:00 -2°C° 0.1 mm 4 m/S 744 mmHg 89%
    17:00 -3°C° 0.1 mm 4 m/S 744 mmHg 88%
    18:00 -3°C° 0.1 mm 4 m/S 745 mmHg 88%
    19:00 -5°C° 0.1 mm 5 m/S 746 mmHg 88%
    20:00 -4°C° 0 mm 4 m/S 747 mmHg 86%
    21:00 -4°C° 0 mm 4 m/S 747 mmHg 85%
    22:00 -5°C° 0 mm 4 m/S 748 mmHg 83%
    23:00 -5°C° 0 mm 3 m/S 748 mmHg 87%

    19 Oktober, Samstag

    Zeit Temperatur Niederschläge Wind Luftdruck Luftfeuchtigkeit
    00:00 -6°C° 0 mm 3 m/S 749 mmHg 90%
    01:00 -6°C° 0 mm 2 m/S 749 mmHg 93%
    02:00 -6°C° 0 mm 2 m/S 750 mmHg 94%
    03:00 -7°C° 0 mm 2 m/S 750 mmHg 95%
    04:00 -7°C° 0 mm 2 m/S 751 mmHg 96%
    05:00 -6°C° 0 mm 1 m/S 751 mmHg 96%
    06:00 -6°C° 0 mm 1 m/S 751 mmHg 96%
    07:00 -7°C° 0 mm 1 m/S 752 mmHg 96%
    08:00 -4°C° 0 mm 1 m/S 752 mmHg 88%
    09:00 -3°C° 0 mm 1 m/S 753 mmHg 81%
    10:00 -1°C° 0 mm 1 m/S 753 mmHg 73%
    11:00 -1°C° 0 mm 1 m/S 753 mmHg 69%
    12:00 0°C° 0 mm 1 m/S 753 mmHg 65%
    13:00 +1°C° 0 mm 1 m/S 753 mmHg 60%
    14:00 0°C° 0 mm 0 m/S 753 mmHg 63%
    15:00 -1°C° 0 mm 0 m/S 753 mmHg 66%
    16:00 -2°C° 0 mm 0 m/S 753 mmHg 70%
    17:00 -3°C° 0 mm 0 m/S 753 mmHg 73%
    18:00 -2°C° 0 mm 1 m/S 753 mmHg 77%
    19:00 -3°C° 0 mm 1 m/S 753 mmHg 80%
    20:00 -3°C° 0 mm 1 m/S 754 mmHg 82%
    21:00 -4°C° 0 mm 1 m/S 754 mmHg 83%
    22:00 -4°C° 0 mm 1 m/S 754 mmHg 84%
    23:00 -4°C° 0 mm 1 m/S 754 mmHg 85%

    20 Oktober, Sonntag

    Zeit Temperatur Niederschläge Wind Luftdruck Luftfeuchtigkeit
    00:00 -4°C° 0 mm 1 m/S 754 mmHg 86%
    01:00 -4°C° 0 mm 1 m/S 754 mmHg 87%
    02:00 -4°C° 0 mm 1 m/S 753 mmHg 87%
    03:00 -6°C° 0 mm 2 m/S 753 mmHg 87%
    04:00 -7°C° 0 mm 2 m/S 753 mmHg 87%
    05:00 -6°C° 0 mm 2 m/S 753 mmHg 86%
    06:00 -6°C° 0 mm 2 m/S 753 mmHg 85%
    07:00 -6°C° 0 mm 2 m/S 753 mmHg 84%
    08:00 -5°C° 0 mm 2 m/S 753 mmHg 79%
    09:00 -4°C° 0 mm 3 m/S 753 mmHg 74%
    10:00 -2°C° 0 mm 3 m/S 752 mmHg 69%
    11:00 -2°C° 0 mm 4 m/S 752 mmHg 69%
    12:00 -1°C° 0 mm 4 m/S 751 mmHg 70%
    13:00 0°C° 0 mm 5 m/S 751 mmHg 70%
    14:00 0°C° 0 mm 5 m/S 751 mmHg 72%
    15:00 -1°C° 0 mm 5 m/S 750 mmHg 73%
    16:00 -1°C° 0 mm 5 m/S 750 mmHg 75%
    17:00 -1°C° 0 mm 5 m/S 749 mmHg 75%
    18:00 -2°C° 0 mm 5 m/S 749 mmHg 75%
    19:00 -3°C° 0 mm 6 m/S 748 mmHg 75%
    20:00 -3°C° 0 mm 6 m/S 748 mmHg 78%
    21:00 -2°C° 0 mm 6 m/S 748 mmHg 80%
    22:00 -2°C° 0 mm 6 m/S 747 mmHg 82%
    23:00 -2°C° 0.2 mm 6 m/S 747 mmHg 86%

    21 Oktober, Montag

    Zeit Temperatur Niederschläge Wind Luftdruck Luftfeuchtigkeit
    00:00 -2°C° 0.2 mm 6 m/S 747 mmHg 89%
    01:00 -2°C° 0.2 mm 6 m/S 747 mmHg 92%
    02:00 0°C° 0.1 mm 5 m/S 746 mmHg 93%
    03:00 0°C° 0.1 mm 4 m/S 746 mmHg 93%
    04:00 0°C° 0.1 mm 4 m/S 746 mmHg 94%
    05:00 +1°C° 0.1 mm 4 m/S 746 mmHg 94%
    06:00 +2°C° 0.1 mm 3 m/S 746 mmHg 94%
    07:00 +2°C° 0.1 mm 3 m/S 745 mmHg 94%
    08:00 +2°C° 0.1 mm 3 m/S 745 mmHg 94%
    09:00 +2°C° 0.1 mm 3 m/S 745 mmHg 94%
    10:00 +3°C° 0.1 mm 2 m/S 746 mmHg 94%
    11:00 +3°C° 0.1 mm 2 m/S 746 mmHg 94%
    12:00 +3°C° 0.1 mm 2 m/S 746 mmHg 95%
    13:00 +4°C° 0.1 mm 2 m/S 746 mmHg 95%
    14:00 +4°C° 0 mm 1 m/S 747 mmHg 95%
    15:00 +4°C° 0 mm 1 m/S 747 mmHg 96%
    16:00 +4°C° 0 mm 1 m/S 747 mmHg 96%
    17:00 +4°C° 0 mm 1 m/S 748 mmHg 96%
    18:00 +4°C° 0 mm 1 m/S 748 mmHg 97%
    19:00 +3°C° 0 mm 1 m/S 748 mmHg 97%
    20:00 +2°C° 0 mm 0 m/S 748 mmHg 98%
    21:00 +2°C° 0 mm 0 m/S 748 mmHg 98%
    22:00 +2°C° 0 mm 0 m/S 748 mmHg 98%
    23:00 +3°C° 0 mm 1 m/S 748 mmHg 98%
    Mehr zeigen